Location: Nairn
(57.5833°N, 3.8667°W)
Time: 17:05:37
(UTC+00:00)

Tiros 1 - Pass Details

Date: 28 November 2020
Orbit: 630 x 663 km, 48.4° (Epoch: 21 January)

Event Time Altitude Azimuth Distance (km) Brightness Sun altitude
Rises 19:48:23 0° 261° (W) 2,988 11.6 -32.0°
Reaches altitude 10° 19:51:07 10° 247° (WSW) 2,070 10.4 -32.3°
Enters shadow 19:53:01 18° 227° (SW) 1,581 9.4 -32.6°
Maximum altitude 19:54:51 23° 196° (SSW) 1,388 - -32.8°
Drops below altitude 10° 19:58:33 10° 144° (SE) 2,051 - -33.3°
Sets 20:01:15 0° 130° (SE) 2,953 - -33.6°
